Location: Morisset
(33.1080°S, 151.4871°E)
Time: 09:08:18
(UTC+00:00)

Okean 1 Rocket - Pass Details

Date: 29 October 2020
Orbit: 606 x 635 km, 82.5° (Epoch: 27 November)

Event Time Altitude Azimuth Distance (km) Brightness Sun altitude
Exits shadow 16:27:17 38° 78° (ENE) 966 4.2 -28.1°
Maximum altitude 16:27:36 38° 89° (E) 958 4.3 -28.1°
Drops below altitude 10° 16:31:47 10° 156° (SSE) 2,028 6.5 -27.4°
Sets 16:34:09 0° 164° (SSE) 2,948 7.4 -27.0°
